This is the latest recevied weather packets stored in our database for station/object DG8SF-13. If no packets are shown the sender has not sent any weather packets the latest 1 day(s).
| Time | Temp. | Humidity | Pressure | Rain* | Wind** | Luminosity | Snow |
|---|---|---|---|---|---|---|---|
| 1778080146 | 18.33° C | 55% | 1004.1 hPa | 0 mm | - | - | - |
| 1778079521 | 20° C | 52% | 1004.2 hPa | 0 mm | - | - | - |
| 1778079210 | 20.56° C | 53% | 1004.2 hPa | 0 mm | - | - | - |
| 1778078584 | 20.56° C | 55% | 1004.4 hPa | 0 mm | - | - | - |
| 1778077963 | 21.11° C | 55% | 1004.2 hPa | 0 mm | - | - | - |
| 1778076090 | 18.33° C | 59% | 1004.5 hPa | 0 mm | - | - | - |
| 1778075776 | 18.89° C | 60% | 1004.4 hPa | 0 mm | - | - | - |
| 1778073906 | 18.33° C | 58% | 1004.7 hPa | 0 mm | - | - | - |
| 1778072973 | 18.89° C | 58% | 1004.5 hPa | 0 mm | - | - | - |
| 1778072034 | 19.44° C | 56% | 1004.5 hPa | 0 mm | - | - | - |
| 1778070785 | 18.33° C | 56% | 1004.6 hPa | 0 mm | - | - | - |
| 1778070160 | 18.89° C | 55% | 1004.5 hPa | 0 mm | - | - | - |
| 1778069851 | 18.33° C | 56% | 1004.5 hPa | 0 mm | - | - | - |
| 1778069536 | 18.33° C | 57% | 1004.6 hPa | 0 mm | - | - | - |
| 1778068289 | 18.89° C | 54% | 1004.7 hPa | 0 mm | - | - | - |
| 1778065793 | 17.78° C | 58% | 1004.9 hPa | 0 mm | - | - | - |
| 1778065168 | 16.67° C | 61% | 1005.1 hPa | 0 mm | - | - | - |
| 1778063610 | 16.67° C | 62% | 1005.6 hPa | 0 mm | - | - | - |
| 1778062985 | 17.78° C | 60% | 1005.7 hPa | 0 mm | - | - | - |
| 1778062675 | 17.78° C | 61% | 1005.8 hPa | 0 mm | - | - | - |
| 1778061738 | 17.22° C | 61% | 1005.9 hPa | 0 mm | - | - | - |
| 1778060801 | 16.67° C | 62% | 1005.9 hPa | 0 mm | - | - | - |
| 1778060490 | 17.78° C | 58% | 1005.9 hPa | 0 mm | - | - | - |
| 1778059866 | 18.33° C | 60% | 1005.8 hPa | 0 mm | - | - | - |
| 1778059243 | 17.22° C | 58% | 1005.9 hPa | 0 mm | - | - | - |
* Rain latest hour (hover to see other rain measurements)
** Current wind speed in m/s (hover to see current wind gust speed)